EW1979 Weather Reports


Display with metric or nautical units.
time (UTC)temp
F
wind
direction
speed
MPH
gust
MPH
rain 1hr
in
rain 24hr
in
rain mn
in
humidity
%
barometer
mb
20240526060014 77 158 5.0 0.0 0.00 0.00 0.00 57 1002.9
20240526054512 78 128 7.0 0.0 0.00 0.00 0.00 59 1002.9
20240526053023 78 171 6.0 0.0 0.00 0.00 0.00 60 1003.3
20240526051507 78 113 4.0 0.0 0.00 0.00 0.00 61 1003.5
20240526050001 79 156 3.0 0.0 0.00 0.00 0.00 61 1003.7
20240526044558 79 152 3.0 0.0 0.00 0.00 0.00 61 1003.5
20240526043056 80 171 2.0 0.0 0.00 0.00 0.00 61 1003.3
20240526041550 80 148 2.0 0.0 0.00 0.00 0.00 61 1003.3
20240526040045 80 153 2.0 0.0 0.00 0.00 0.00 60 1003.1
20240526034542 81 142 2.0 0.0 0.00 0.00 0.00 58 1003.0
20240526033036 81 121 5.0 0.0 0.00 0.00 0.00 57 1002.7
20240526031532 82 171 5.0 0.0 0.00 0.00 0.00 57 1002.6
20240526030027 82 141 3.0 0.0 0.00 0.00 0.00 57 1002.4
20240526024522 82 146 0.0 0.0 0.00 0.00 0.00 58 1002.3
20240526023018 83 135 1.0 0.0 0.00 0.00 0.00 59 1002.4
20240526021514 84 142 3.0 0.0 0.00 0.00 0.00 59 1002.3
20240526020009 84 144 0.0 0.0 0.00 0.00 0.00 60 1002.2
20240526014507 85 167 1.0 0.0 0.00 0.00 0.00 59 1001.8
20240526013001 86 134 2.0 0.0 0.00 0.00 0.00 59 1001.5
20240526011603 87 144 0.0 0.0 0.00 0.00 0.00 58 1001.3
20240526010106 88 145 1.0 0.0 0.00 0.00 0.00 57 1001.2
20240526004548 89 159 3.0 0.0 0.00 0.00 0.00 57 1000.9
20240526003043 90 157 3.0 0.0 0.00 0.00 0.00 56 1000.9
20240526001539 91 157 1.0 0.0 0.00 0.00 0.00 55 1000.7
20240526000043 91 157 4.0 0.0 0.00 0.00 0.00 53 1000.5
20240525234534 92 158 2.0 0.0 0.00 0.00 0.00 51 1000.3
20240525233030 93 175 5.0 0.0 0.00 0.00 0.00 50 1000.1
20240525231522 93 132 6.0 0.0 0.00 0.00 0.00 51 1000.2
20240525230020 94 101 6.0 0.0 0.00 0.00 0.00 50 1000.4
20240525224512 94 167 4.0 0.0 0.00 0.00 0.00 49 1000.2
20240525223013 95 159 3.0 0.0 0.00 0.00 0.00 49 1000.2
20240525221505 95 164 6.0 0.0 0.00 0.00 0.00 49 1000.1
20240525220101 95 145 7.0 0.0 0.00 0.00 0.00 48 1000.4
20240525214555 95 155 4.0 0.0 0.00 0.00 0.00 49 1000.4
20240525213058 95 156 2.0 0.0 0.00 0.00 0.00 48 1000.6
20240525211552 95 159 5.0 0.0 0.00 0.00 0.00 48 1000.9
20240525210042 94 173 8.0 0.0 0.00 0.00 0.00 48 1001.1
20240525204538 93 157 11.0 0.0 0.00 0.00 0.00 49 1001.5
20240525203033 94 178 7.0 0.0 0.00 0.00 0.00 49 1001.5
20240525201530 94 195 2.0 0.0 0.00 0.00 0.00 49 1001.5
20240525200024 93 167 3.0 0.0 0.00 0.00 0.00 48 1002.1
20240525194523 92 211 5.0 0.0 0.00 0.00 0.00 48 1002.5
20240525193015 92 159 3.0 0.0 0.00 0.00 0.00 47 1002.7
20240525191522 91 178 6.0 0.0 0.00 0.00 0.00 46 1003.0
20240525190013 90 193 8.0 0.0 0.00 0.00 0.00 45 1003.3
20240525184504 89 153 2.0 0.0 0.00 0.00 0.00 43 1003.6
20240525183059 89 162 5.0 0.0 0.00 0.00 0.00 42 1003.9
20240525181556 88 147 4.0 0.0 0.00 0.00 0.00 40 1004.2
20240525180052 86 179 5.0 0.0 0.00 0.00 0.00 39 1004.7
20240525174546 86 150 6.0 0.0 0.00 0.00 0.00 38 1004.8
20240525173054 85 165 4.0 0.0 0.00 0.00 0.00 37 1005.2
20240525171541 85 203 6.0 0.0 0.00 0.00 0.00 36 1005.2
20240525170032 84 142 5.0 0.0 0.00 0.00 0.00 32 1005.6
20240525164535 84 167 2.0 0.0 0.00 0.00 0.00 30 1005.5
20240525163031 83 165 2.0 0.0 0.00 0.00 0.00 27 1005.9
20240525161522 82 142 1.0 0.0 0.00 0.00 0.00 24 1006.0
20240525160030 81 190 2.0 0.0 0.00 0.00 0.00 23 1006.0
20240525154510 81 153 5.0 0.0 0.00 0.00 0.00 20 1006.0
20240525153009 81 146 3.0 0.0 0.00 0.00 0.00 18 1006.1
20240525151503 80 148 3.0 0.0 0.00 0.00 0.00 12 1006.2
20240525150058 79 154 3.0 0.0 0.00 0.00 0.00 6 1006.3
20240525144559 78 158 5.0 0.0 0.00 0.00 0.00 100 1006.3
20240525143048 78 168 4.0 0.0 0.00 0.00 0.00 100 1006.3
20240525141545 77 157 4.0 0.0 0.00 0.00 0.00 100 1006.3
20240525140044 77 160 4.0 0.0 0.00 0.00 0.00 100 1006.2
20240525134547 76 176 3.0 0.0 0.00 0.00 0.00 100 1006.3
20240525133036 76 159 3.0 0.0 0.00 0.00 0.00 100 1006.3
20240525131532 76 167 2.0 0.0 0.00 0.00 0.00 100 1006.0
20240525130023 75 161 4.0 0.0 0.00 0.00 0.00 100 1005.9
20240525124521 75 159 4.0 0.0 0.00 0.00 0.00 100 1005.7
20240525123014 75 158 3.0 0.0 0.00 0.00 0.00 100 1005.5
20240525121509 75 167 3.0 0.0 0.00 0.00 0.00 100 1005.5
20240525120006 75 155 2.0 0.0 0.00 0.00 0.00 100 1005.3
20240525114607 75 159 1.0 0.0 0.00 0.00 0.00 100 1005.3
20240525113057 75 159 2.0 0.0 0.00 0.00 0.00 100 1005.3
20240525111555 75 152 1.0 0.0 0.00 0.00 0.00 100 1005.1
20240525110048 75 157 2.0 0.0 0.00 0.00 0.00 100 1005.1
20240525104543 75 157 1.0 0.0 0.00 0.00 0.00 100 1005.0
20240525103042 75 163 3.0 0.0 0.00 0.00 0.00 100 1004.8
20240525101535 75 135 0.0 0.0 0.00 0.00 0.00 100 1004.7
20240525100033 75 121 0.0 0.0 0.00 0.00 0.00 100 1004.6
20240525094526 75 121 0.0 0.0 0.00 0.00 0.00 100 1004.8
20240525093036 75 121 0.0 0.0 0.00 0.00 0.00 100 1004.8
20240525091518 75 121 0.0 0.0 0.00 0.00 0.00 100 1004.7
20240525090014 75 120 0.0 0.0 0.00 0.00 0.00 100 1004.9
20240525084517 75 134 0.0 0.0 0.00 0.00 0.00 100 1005.0
20240525083005 75 121 0.0 0.0 0.00 0.00 0.00 100 1005.0
20240525081606 75 119 0.0 0.0 0.00 0.00 0.00 100 1005.0
20240525080057 75 135 0.0 0.0 0.00 0.00 0.00 100 1004.9
20240525074552 75 137 0.0 0.0 0.00 0.00 0.00 100 1005.1
20240525073048 75 132 0.0 0.0 0.00 0.00 0.00 100 1005.2
20240525071545 76 136 0.0 0.0 0.00 0.00 0.00 100 1005.2
20240525070039 76 142 0.0 0.0 0.00 0.00 0.00 100 1005.1
20240525064535 76 126 1.0 0.0 0.00 0.00 0.00 100 1005.2
20240525063030 77 161 1.0 0.0 0.00 0.00 0.00 100 1005.4
20240525061526 77 147 1.0 0.0 0.00 0.00 0.00 100 1005.2